Location: Montamat
(43.4852°N, 0.8444°E)
Time: 05:20:16
(UTC+00:00)

IRAS Rocket - Pass Details

Date: 14 May 2026
Orbit: 846 x 875 km, 100.1° (Epoch: 6 June)

Event Time Altitude Azimuth Distance (km) Brightness Sun altitude
Rises 19:35:10 0° 153° (SSE) 3,392 6.8 -4.3°
Reaches altitude 10° 19:37:32 10° 150° (SSE) 2,462 6.1 -4.6°
Maximum altitude 19:42:54 64° 70° (ENE) 941 4.3 -5.5°
Drops below altitude 10° 19:48:20 10° 350° (N) 2,489 7.3 -6.3°
Sets 19:50:44 0° 348° (NNW) 3,433 8.1 -6.7°
